Location: Rioux
(40.7500°S, 175.7500°E)
Time: 09:33:44
(UTC+00:00)

Meteor 1-31 Rocket - Pass Details

Date: 12 June 2024
Orbit: 494 x 513 km, 97.7° (Epoch: 21 July)

Event Time Altitude Azimuth Distance (km) Brightness Sun altitude
Rises 17:57:48 0° 23° (NNE) 2,623 6.8 -18.4°
Reaches altitude 10° 17:59:53 10° 26° (NNE) 1,749 5.9 -18.0°
Maximum altitude 18:03:36 58° 106° (ESE) 617 3.3 -17.3°
Drops below altitude 10° 18:07:23 10° 184° (S) 1,783 5.2 -16.7°
Enters shadow 18:08:09 - 186° (S) 2,105 5.6 -16.5°
